GSAT-31

Last updated on Tue Sep 22 2026 00:03:14 GMT+0000 (Coordinated Universal Time)

1 44035U 19007B 26264.49860406 .00000121 00000+0 00000+0 0 9992 2 44035 0.0130 121.5864 0004028 106.3674 359.8059 1.00273804 27935
UTC large
Height (km)
Speed (km/s)
/
Latitude / Longitude
Inclination (degrees)
Orbital Period (minutes)
Azimuth
Elevation
Range (km)
Doppler Factor

Next 0 passes for location: London (51.5072 / 0.1276)

No passes found over London.
GSAT-31